#timestamp,LO_Frequency,Hit,StdDev 
1570255215.9,286046999.7,N
1570255235.7,286046999.9,N
1570255255.6,286046999.7,N
1570255275.4,286047002.8,N
1570255295.2,286047001.2,N
1570255315.1,286046999.9,N
1570255316.0,286046999.9,N
1570255335.8,286047002.8,N
1570255355.7,286047001.1,N
1570255375.5,286046999.0,N
1570255395.3,286046999.6,N
1570255415.2,286046998.4,N
1570255435.0,286046998.7,N
1570255435.9,286046998.7,N
1570255455.8,286046998.2,N
1570255475.6,286047000.9,N
1570255495.4,286047002.8,N
1570255515.3,286047002.7,N
1570255535.1,286047002.3,N
1570255555.8,286047000.2,N
1570255575.7,286047000.7,N
1570255595.5,286047000.9,N
1570255615.4,286046999.9,N
1570255635.2,286047000.4,N
1570255655.0,286047000.9,N
1570255655.9,286047000.9,N
1570255675.8,286047002.4,N
1570255695.6,286047000.2,N
1570255715.5,286047001.2,N
1570255735.3,286046999.4,N
1570255755.1,286046997.4,N
1570255775.9,286046996.8,N
1570255795.7,286046997.9,N
1570255815.6,286046997.9,N
1570255835.4,286046997.2,N
1570255855.2,286046997.7,N
1570255875.1,286046998.0,N
1570255876.0,286046998.0,N
1570255895.8,286046996.3,N
1570255915.6,286046993.8,Y
1570255935.5,286046995.6,P
1570255955.3,286046997.6,N
1570255975.2,286046997.0,N
1570255995.9,286046997.7,N
1570256015.7,286046996.5,N
1570256035.6,286046996.5,N
1570256055.4,286046996.5,Y
1570256075.3,286047000.4,P
1570256095.1,286046999.9,N
1570256096.0,286046999.9,N
1570256115.8,286047002.4,N
1570256135.7,286047001.6,N
1570256155.5,286047000.6,N
1570256175.4,286047000.6,N
1570256195.2,286047000.0,N
1570256215.0,286046999.9,N
1570256215.9,286046999.9,N
1570256235.8,286047002.0,N
1570256255.6,286047001.8,N
1570256275.5,286047004.3,Y
1570256295.3,286047001.7,P
1570256315.1,286047001.6,N
1570256335.9,286047001.6,N
1570256355.7,286047004.0,Y
1570256375.5,286047002.3,P
1570256395.4,286047000.8,N
1570256415.2,286046998.3,N
1570256435.1,286046997.1,N
1570256455.6,286046997.6,N
1570256475.4,286046996.5,N
1570256495.3,286046996.6,N
1570256515.1,286046999.4,N
1570256535.8,286046996.9,N
1570256555.7,286046997.5,N
1570256575.5,286046999.4,N
1570256595.4,286046997.1,N
1570256615.2,286046997.4,N
1570256635.0,286046999.6,N
1570256635.9,286046999.6,N
1570256655.8,286046998.9,N
1570256675.6,286046998.4,N
1570256695.5,286046998.2,N
1570256715.3,286046998.3,N
1570256735.1,286046999.1,N
1570256755.9,286046997.9,N
1570256775.7,286046995.2,Y
1570256795.6,286046999.6,P
1570256815.4,286046998.5,N
1570256835.2,286046998.7,N
1570256855.1,286047001.1,N
1570256856.0,286047001.1,N
1570256875.8,286046999.9,N
1570256895.7,286047002.7,N
1570256915.5,286047000.0,N
1570256935.3,286047002.8,N
1570256955.2,286047002.4,N
1570256975.0,286046998.6,N
1570256975.9,286046998.6,N
1570256995.8,286046999.2,N
1570257015.6,286046996.6,N
1570257035.4,286046998.3,N
1570257055.3,286046998.1,N
1570257075.1,286046997.4,N
1570257095.8,286046999.5,N
1570257115.7,286046999.1,N
1570257135.5,286046998.8,N
1570257155.4,286046996.5,N
1570257175.2,286047001.1,N
1570257195.0,286047000.6,N
1570257195.9,286047000.6,N
1570257215.8,286046998.1,N
1570257235.6,286047000.4,N
1570257255.4,286047000.4,N
1570257275.3,286046999.7,N
1570257295.1,286047004.3,N
1570257315.9,286047001.3,N
1570257335.7,286047004.0,N
1570257355.5,286047004.4,N
1570257375.4,286047001.3,N
1570257395.2,286047004.4,N
1570257415.1,286047003.0,N
1570257416.0,286047003.0,N
1570257435.8,286047003.0,N
1570257455.6,286047003.2,N
1570257475.5,286047003.1,N
1570257495.3,286047004.4,N
1570257515.1,286047001.8,N
1570257535.9,286047004.2,N
1570257555.7,286047001.4,N
1570257575.6,286047004.0,N
1570257595.4,286047002.0,N
1570257615.2,286047004.4,N
1570257635.1,286047004.0,N
1570257636.0,286047004.0,N
1570257655.8,286047003.6,N
1570257675.7,286047001.3,N
1570257695.5,286047002.4,N
1570257715.3,286047002.5,N
1570257735.2,286047000.1,N
1570257755.0,286047000.2,N
1570257755.9,286047000.2,N
1570257775.8,286047002.2,N
1570257795.6,286047000.5,N
1570257815.4,286047000.3,N
1570257835.3,286047002.5,N
1570257855.1,286047011.9,Y
1570257875.8,286046998.3,P
1570257895.7,286046998.2,N
1570257915.5,286047001.1,N
1570257935.4,286047000.4,N
1570257955.2,286047000.1,N
1570257975.0,286047002.3,N
1570257975.9,286047002.3,N
1570257995.8,286047002.0,N
1570258015.6,286047002.8,N
1570258035.5,286047001.2,N
1570258055.3,286046999.2,N
1570258075.1,286046996.9,N
1570258095.9,286046999.2,N
1570258115.7,286046997.0,N
1570258135.5,286046997.6,N
1570258155.8,286046999.1,N
1570258175.6,286046996.9,N
1570258195.4,286046999.3,N
1570258215.3,286046999.5,N
1570258235.1,286046999.5,N
1570258255.8,286046999.0,N
1570258275.7,286046999.2,N
1570258295.5,286047001.1,N
1570258315.4,286047000.9,N
1570258335.2,286046998.9,N
1570258355.0,286046999.4,N
1570258355.9,286046999.4,N
1570258375.8,286046997.5,N
1570258395.6,286046996.2,N
1570258415.4,286046996.4,N
1570258435.3,286046996.2,N
1570258455.1,286046997.8,N
1570258475.9,286046996.7,N
1570258495.7,286046999.4,N
1570258515.5,286046998.5,N
1570258535.4,286047000.2,N
1570258555.2,286047002.4,N
1570258575.0,286047000.4,N
1570258576.0,286047000.4,N
1570258595.8,286046998.2,N
1570258615.6,286047001.0,N
1570258635.5,286047001.8,N
1570258655.3,286047001.7,N
1570258675.1,286047002.3,N
1570258695.9,286047000.6,N
1570258715.7,286047000.8,N
1570258735.6,286046998.8,N
1570258755.4,286046998.7,N
1570258775.2,286046998.6,N
1570258795.1,286046999.8,N
1570258796.0,286046999.8,N
